London,

6:24 AM EST on December 07, 2016 (GMT -0500)
London

Weather History for CYXU - October, 2013

Change the Weather History Date:

Monday, October 14, 2013

  Actual Average Record
Temperature  
Mean Temperature 52 °F -  
Max Temperature 62 °F 56 °F 71 °F (2000)
Min Temperature 42 °F 40 °F 32 °F (2002)
Degree Days  
Heating Degree Days 13    
Growing Degree Days 2 (Base 50)    
Moisture  
Dew Point 44 °F    
Average Humidity 78    
Maximum Humidity 100    
Minimum Humidity 38    
Precipitation  
Precipitation 0.00 in - - ()
Sea Level Pressure  
Sea Level Pressure 30.35 in    
Wind  
Wind Speed 4 mph ()    
Max Wind Speed 10 mph    
Max Gust Speed -    
Visibility 15.0 miles    
Events      
Averages and records for this station are not official NWS values.
T = Trace of Precipitation, MM = Missing Value Source: Averaged Metar Reports

Daily Weather History Graph

Daily Weather History Graph

Search for Another Location

Airport or City:

Trip Planner

Search our weather history database for the weather conditions in past years. The results will help you decide how hot, cold, wet, or windy it might be!

Date:

Astronomy

Oct. 14, 2013 Rise Set
Actual Time 7:37 AM EDT 6:43 PM EDT
Civil Twilight 7:08 AM EDT 7:11 PM EDT
Nautical Twilight 6:35 AM EDT 7:44 PM EDT
Astronomical Twilight 6:02 AM EDT 8:17 PM EDT
Moon 4:17 PM EDT (10/14) 2:45 AM EDT (10/14)
Length of Visible Light 12h 03m
Length of Day
11h 05m
Waxing Gibbous, 79% of the Moon is Illuminated
Oct 14
Waxing Gibbous
Oct 18
Full
Oct 26
Last Quarter
Nov 3
New
Nov 10
First Quarter

Hourly Weather History & Observations

Time (EDT) Temp. Windchill Dew Point Humidity Pressure Visibility Wind Dir Wind Speed Gust Speed Precip Events Conditions
12:00 AM 44.6 °F 43.1 °F 44.6 °F 100% 30.34 in 15.0 mi North 3.5 mph - N/A   Clear
1:00 AM 46.4 °F 45.2 °F 44.6 °F 93% 30.34 in 15.0 mi North 3.5 mph - N/A   Clear
2:00 AM 46 °F - 46 °F 100% 30.35 in 15 mi NNW 2.3 mph - -  
2:00 AM 46.4 °F - 46.4 °F 100% 30.35 in 15.0 mi NNW 2.3 mph - N/A   Clear
3:00 AM 44.6 °F 43.1 °F 44.6 °F 100% 30.35 in 15.0 mi NW 3.5 mph - N/A   Clear
4:00 AM 42.8 °F 41.1 °F 42.8 °F 100% 30.35 in 15.0 mi NW 3.5 mph - N/A   Clear
5:00 AM 44.6 °F 43.1 °F 44.6 °F 100% 30.35 in 15.0 mi North 3.5 mph - N/A   Partly Cloudy
6:00 AM 44.6 °F 42.2 °F 44.6 °F 100% 30.37 in 15.0 mi North 4.6 mph - N/A   Mostly Cloudy
7:00 AM 46.4 °F 44.3 °F 44.6 °F 93% 30.39 in 15.0 mi NNW 4.6 mph - N/A   Mostly Cloudy
8:00 AM 47 °F - 46 °F 93% 30.40 in 15 mi North 3.5 mph - -  
8:00 AM 48.2 °F - 46.4 °F 93% 30.40 in 15.0 mi North 4.6 mph - N/A   Mostly Cloudy
9:00 AM 48.2 °F - 44.6 °F 87% 30.40 in 15.0 mi North 5.8 mph - N/A   Scattered Clouds
10:00 AM 53.6 °F - 42.8 °F 67% 30.41 in 15.0 mi North 6.9 mph - N/A   Partly Cloudy
11:00 AM 55.4 °F - 42.8 °F 63% 30.39 in 15.0 mi North 10.4 mph - N/A   Partly Cloudy
12:00 PM 57.2 °F - 37.4 °F 48% 30.38 in 15.0 mi North 4.6 mph - N/A   Partly Cloudy
1:00 PM 59.0 °F - 41.0 °F 51% 30.36 in 15.0 mi NNW 6.9 mph - N/A   Partly Cloudy
2:00 PM 60 °F - 41 °F 38% 30.35 in 15 mi North 5.8 mph - -  
2:00 PM 60.8 °F - 41.0 °F 48% 30.34 in 15.0 mi NNW 8.1 mph - N/A   Partly Cloudy
3:00 PM 60.8 °F - 41.0 °F 48% 30.33 in 15.0 mi North 9.2 mph - N/A   Partly Cloudy
4:00 PM 62.6 °F - 44.6 °F 52% 30.31 in 15.0 mi NNW 6.9 mph - N/A   Scattered Clouds
5:00 PM 60.8 °F - 41.0 °F 48% 30.31 in 15.0 mi NNW 6.9 mph - N/A   Partly Cloudy
6:00 PM 59.0 °F - 41.0 °F 51% 30.31 in 15.0 mi North 8.1 mph - N/A   Scattered Clouds
7:00 PM 53.6 °F - 44.6 °F 72% 30.32 in 15.0 mi NW 6.9 mph - N/A   Partly Cloudy
8:00 PM 51 °F - 46 °F 75% 30.32 in 15 mi NNW 5.8 mph - -  
8:00 PM 51.8 °F - 46.4 °F 82% 30.32 in 15.0 mi NNW 6.9 mph - N/A   Partly Cloudy
9:00 PM 48.2 °F - 46.4 °F 93% 30.32 in 15.0 mi WNW 3.5 mph - N/A   Partly Cloudy
10:00 PM 48.2 °F - 44.6 °F 87% 30.32 in 15.0 mi NNW 5.8 mph - N/A   Scattered Clouds
11:00 PM 44.6 °F 41.4 °F 42.8 °F 93% 30.31 in 15.0 mi ESE 5.8 mph - N/A   Scattered Clouds